Weather in Lomovka

Russia / Tula Oblast     53°42′02″N   38°04′17″E
temp.,
°C
wind,
m/s
gust,
m/s
humid.,
%
clouds,
%
prec.,
mm/h
press.,
hPa
HPBL,
m
8 march, mon
mon800:00−7w6138339 0.0 999319
03:00−9wsw6138522 0.0 1000318
06:00−7wsw7148868 0.0 999530
09:00−6w9149075 0.1 1000957
12:00−5wnw91382100 0.1 10021223
15:00−6wnw688395 0.2 1005894
18:00−9wnw348936 0.0 100739
21:00−12wnw339221 0.0 100921
9 march, tue
tue900:00−12wnw239656 0.0 101023
03:00−12nnw359676 0.1 1012137
06:00−14nnw379698 0.1 1013158
09:00−15nnw479691 0.1 1015251
12:00−12nnw479096 0.0 1017510
15:00−11nw578798 0.1 1018691
18:00−13nw3692100 0.1 1019130
21:00−17nw479279 0.1 102297
10 march, wed
wed1000:00−18nnw339873 0.0 102335
03:00−21nw2310068 0.1 102520
06:00−22nw229917 0.0 102520
09:00−19n239459 0.0 1027136
12:00−16ne2382100 0.0 1027301
15:00−15ne2380100 0.0 1027372
18:00−17ene2390100 0.0 102756
21:00−22ene339075 0.0 102926
11 march, thu
thu1100:00−23e23910 0.0 103020
03:00−24e22930 0.0 103120
06:00−24e22920 0.0 103220
09:00−21e22893 0.0 103374
12:00−16se23780 0.0 1033249
15:00−14sse22750 0.0 1033326
18:00−18se23880 0.0 103220
21:00−21sse34890 0.0 103425
12 march, fri
fri1200:00−21sse44910 0.0 103466
03:00−22s48870 0.0 1033119
06:00−21s511820 0.0 1032178
09:00−17s7148716 0.0 1030286
12:00−11s81585100 0.0 1028456
15:00−8s91586100 0.0 1025596
18:00−8s101881100 0.0 1022753
21:00−7s111989100 0.1 1021899